(163149) = 1998 FV6 = 2002 CV106

Discovered at Socorro on 2002-02-07 by LINEAR.

Orbit

Orbit type: Main Belt

Note: WebGL enabled browser required.

epoch2023-09-13.0
epoch JD2460200.5
perihelion date2021-12-04.97996
perihelion JD2459553.47996
argument of perihelion (°)47.83181
ascending node (°)158.06193
inclination (°)6.34657
eccentricity0.0701664
perihelion distance (AU)2.2994261
Tisserand w.r.t. Jupiter3.5
ΔV w.r.t. Earth (km/sec)9.7
semimajor axis (AU)2.4729438
mean anomaly (°)163.98352
mean daily motion (°/day)0.25344430
aphelion distance (AU)2.646
period (years)3.89
P-vector [x]-0.89790846
P-vector [y]-0.42939229
P-vector [z]-0.09686411
Q-vector [x]0.43824055
Q-vector [y]-0.85138881
Q-vector [z]-0.28824002
absolute magnitude16.4
phase slope0.15
uncertainty0
referenceMPEC 2023-X132
observations used600
oppositions19
arc length (days)19248
first opposition used1971
last opposition used2023
residual rms (arc-secs)0.75
perturbers coarse indicatorM-v
perturbers precise indicator003Ek
first observation date used1971-03-26.0
last observation date used2023-12-06.0
computer nameMPCLINUX
JD of orbit computation2456937.288843
perihelion JD uncertainty (days)1.5664E-04
argument of perihelion uncertainty (°)6.5438E-05
ascending node uncertainty (°)4.8795E-05
inclination uncertainty (°)5.7250E-06
eccentricity uncertainty 7.8905E-08
perihelion distance uncertainty (AU)1.8804E-07
Minimum Orbit Intersection Distances (in AU)
for orbit epoch: 2460200.5, reference: E2023-XD2
Mercury1.85958
Venus1.57814
Earth1.30052
Mars0.66336
Jupiter2.31344
Saturn6.49592
Uranus16.1
Neptune27.196

Observations

621 total observations over interval: 1971 03 26.31007 – 2023 12 06.263631
These data are available for download (format description).

Date (UT) J2000 RA J2000 Dec Magn Location Ref
1971 03 26.31007 12 21 55.18 +02 56 10.2 20.0   675 – Palomar Mountain MPS 213055
1971 03 26.34896 12 21 53.21 +02 56 30.4 20.0   675 – Palomar Mountain MPS 213055
1971 03 27.35208 12 21 03.72 +03 05 12.3 20.0   675 – Palomar Mountain MPS 213055
1994 02 16.20038 09 25 18.94 +12 05 29.9 18.6 V 691 – Steward Observatory, Kitt Peak-Spacewatch MPS 55463
1994 02 16.23322 09 25 17.11 +12 05 44.8   691 – Steward Observatory, Kitt Peak-Spacewatch MPS 55463
1994 02 16.26598 09 25 15.25 +12 05 59.8   691 – Steward Observatory, Kitt Peak-Spacewatch MPS 55463
1998 03 04.25805 10 31 33.20 +09 25 24.7 19.3   704 – Lincoln Laboratory ETS, New Mexico MPS 55463
1998 03 04.27819 10 31 32.09 +09 25 33.5 18.9   704 – Lincoln Laboratory ETS, New Mexico MPS 55463
1998 03 04.29830 10 31 31.10 +09 25 43.4 18.9   704 – Lincoln Laboratory ETS, New Mexico MPS 55463
1998 03 04.33866 10 31 28.47 +09 26 02.2 19.5   704 – Lincoln Laboratory ETS, New Mexico MPS 55463
1998 03 20.18516 10 19 36.39 +11 27 49.7 19.6 V 691 – Steward Observatory, Kitt Peak-Spacewatch MPS 711
1998 03 20.20833 10 19 35.51 +11 27 59.4 19.5 V 691 – Steward Observatory, Kitt Peak-Spacewatch MPS 711
1998 03 20.23512 10 19 34.46 +11 28 09.9 19.6 V 691 – Steward Observatory, Kitt Peak-Spacewatch MPS 711
1998 03 25.17795 10 16 52.06 +11 58 33.8 19.8 V 691 – Steward Observatory, Kitt Peak-Spacewatch MPS 711
1998 03 25.19913 10 16 51.41 +11 58 41.6 19.6 V 691 – Steward Observatory, Kitt Peak-Spacewatch MPS 711
1998 03 25.22055 10 16 50.72 +11 58 48.9 19.5 V 691 – Steward Observatory, Kitt Peak-Spacewatch MPS 711
2000 12 06.07883 03 04 02.09 +07 27 47.9 20.8 V 691 – Steward Observatory, Kitt Peak-Spacewatch MPS 163715
2000 12 06.09967 03 04 01.25 +07 27 45.5 20.4 V 691 – Steward Observatory, Kitt Peak-Spacewatch MPS 163715
2000 12 06.12042 03 04 00.30 +07 27 44.8 20.9 V 691 – Steward Observatory, Kitt Peak-Spacewatch MPS 163715
2002 02 07.39082 12 03 24.51 +00 42 00.1 19.9   704 – Lincoln Laboratory ETS, New Mexico MPS 50281
2002 02 07.40566 12 03 24.32 +00 42 04.9 19.8   704 – Lincoln Laboratory ETS, New Mexico MPS 50281
2002 02 07.42025 12 03 24.17 +00 42 08.4 19.9   704 – Lincoln Laboratory ETS, New Mexico MPS 50281
2002 02 07.44947 12 03 23.84 +00 42 17.0 19.9   704 – Lincoln Laboratory ETS, New Mexico MPS 50281
2002 02 10.38928 12 02 50.85 +00 56 25.1 19.1   704 – Lincoln Laboratory ETS, New Mexico MPS 50281
2002 02 10.40352 12 02 50.64 +00 56 29.6 19.7   704 – Lincoln Laboratory ETS, New Mexico MPS 50281
2002 02 10.41782 12 02 50.43 +00 56 34.2 19.7   704 – Lincoln Laboratory ETS, New Mexico MPS 50281
2002 02 10.43211 12 02 50.23 +00 56 39.0 19.8   704 – Lincoln Laboratory ETS, New Mexico MPS 50281
2002 02 10.44637 12 02 49.92 +00 56 43.2 19.5   704 – Lincoln Laboratory ETS, New Mexico MPS 50281
2002 02 12.45279 12 02 18.77 +01 07 28.0 19.1   704 – Lincoln Laboratory ETS, New Mexico MPS 50281
2002 02 12.46701 12 02 18.49 +01 07 32.4 20.1   704 – Lincoln Laboratory ETS, New Mexico MPS 50281
2002 02 12.49544 12 02 18.00 +01 07 42.5 20.1   704 – Lincoln Laboratory ETS, New Mexico MPS 50281
2002 02 12.50967 12 02 17.68 +01 07 46.6 19.5   704 – Lincoln Laboratory ETS, New Mexico MPS 50281
2002 02 20.30723 11 59 14.33 +01 57 19.1 19.5   704 – Lincoln Laboratory ETS, New Mexico MPS 52677
2002 02 20.32111 11 59 13.78 +01 57 24.2 19.9   704 – Lincoln Laboratory ETS, New Mexico MPS 52677
2002 02 20.33496 11 59 13.32 +01 57 31.6 19.7   704 – Lincoln Laboratory ETS, New Mexico MPS 52677
2002 02 20.34891 11 59 12.98 +01 57 37.1 19.7   704 – Lincoln Laboratory ETS, New Mexico MPS 52677
2002 02 24.41915 11 57 00.59 +02 27 47.3 19.6   644 – Palomar Mountain/NEAT MPS 52677
2002 02 24.42032 11 57 00.51 +02 27 48.2 19.5   644 – Palomar Mountain/NEAT MPS 52677
2002 02 24.44393 11 56 59.66 +02 27 59.1 19.4   644 – Palomar Mountain/NEAT MPS 52677
2002 02 24.44621 11 56 59.56 +02 28 00.3 19.8   644 – Palomar Mountain/NEAT MPS 52677
2002 02 24.46417 11 56 58.93 +02 28 08.5 19.3   644 – Palomar Mountain/NEAT MPS 52677
2002 02 24.46648 11 56 58.81 +02 28 09.7 19.8   644 – Palomar Mountain/NEAT MPS 52677
2002 03 09.29544 11 47 57.33 +04 16 34.0 18.8   704 – Lincoln Laboratory ETS, New Mexico MPS 52677
2002 03 09.31543 11 47 56.36 +04 16 46.2 19.0   704 – Lincoln Laboratory ETS, New Mexico MPS 52677
2002 03 09.33535 11 47 55.30 +04 16 56.2 19.0   704 – Lincoln Laboratory ETS, New Mexico MPS 52677
2002 03 09.35528 11 47 54.28 +04 17 07.1 18.9   704 – Lincoln Laboratory ETS, New Mexico MPS 52677
2002 03 09.37501 11 47 53.38 +04 17 17.2 19.1   704 – Lincoln Laboratory ETS, New Mexico MPS 52677
2002 03 12.06111 11 45 43.55 +04 41 20.4 18.7   106 – Crni Vrh MPS 52677
2002 03 12.07879 11 45 42.60 +04 41 29.2 18.8   106 – Crni Vrh MPS 52677
2002 03 12.09723 11 45 41.68 +04 41 37.9 18.9   106 – Crni Vrh MPS 52677
2002 03 12.31782 11 45 31.07 +04 43 38.7 18.6   704 – Lincoln Laboratory ETS, New Mexico MPS 52677
2002 03 12.33676 11 45 30.11 +04 43 49.5 19.1   704 – Lincoln Laboratory ETS, New Mexico MPS 52677
2002 03 12.35540 11 45 29.17 +04 43 59.2 18.8   704 – Lincoln Laboratory ETS, New Mexico MPS 52677
2002 03 12.37388 11 45 28.22 +04 44 09.8 18.8   704 – Lincoln Laboratory ETS, New Mexico MPS 52677
2002 03 16.30410 11 42 13.91 +05 19 16.6 18.2   704 – Lincoln Laboratory ETS, New Mexico MPS 52677
2002 03 16.31770 11 42 13.22 +05 19 24.0 18.6   704 – Lincoln Laboratory ETS, New Mexico MPS 52677
2002 03 16.33125 11 42 12.51 +05 19 31.0 18.7   704 – Lincoln Laboratory ETS, New Mexico MPS 52677
2002 03 16.34482 11 42 11.82 +05 19 38.3 18.5   704 – Lincoln Laboratory ETS, New Mexico MPS 52677
2002 03 16.35838 11 42 11.08 +05 19 45.5 18.5   704 – Lincoln Laboratory ETS, New Mexico MPS 52677
2002 03 23.30548 11 36 30.11 +06 19 44.0 20.9   608 – Haleakala-AMOS MPS 52677
2002 03 23.31745 11 36 29.51 +06 19 50.6 21.1   608 – Haleakala-AMOS MPS 52677
2002 03 23.32813 11 36 28.93 +06 19 55.0 20.4   608 – Haleakala-AMOS MPS 52677
2002 04 02.32987 11 29 05.26 +07 35 50.5 19.4   644 – Palomar Mountain/NEAT MPS 55463
2002 04 02.35126 11 29 04.37 +07 35 59.0 19.1   644 – Palomar Mountain/NEAT MPS 55463
2002 04 02.37242 11 29 03.49 +07 36 07.6 19.3   644 – Palomar Mountain/NEAT MPS 55463
2002 04 03.38676 11 28 23.75 +07 42 53.4 19.2   644 – Palomar Mountain/NEAT MPS 55463
2002 04 03.39851 11 28 23.28 +07 42 57.9 19.3   644 – Palomar Mountain/NEAT MPS 55463
2002 04 03.41037 11 28 22.80 +07 43 02.4 19.2   644 – Palomar Mountain/NEAT MPS 55463
2002 04 06.27627 11 26 37.66 +08 01 00.0 19.3   704 – Lincoln Laboratory ETS, New Mexico MPS 55463
2002 04 06.28831 11 26 37.27 +08 01 05.3 19.3   704 – Lincoln Laboratory ETS, New Mexico MPS 55463
2002 04 06.31247 11 26 36.39 +08 01 13.6 19.3   704 – Lincoln Laboratory ETS, New Mexico MPS 55463
2002 04 15.13697 11 22 24.33 +08 45 27.6 19.2   704 – Lincoln Laboratory ETS, New Mexico MPS 55463
2002 04 15.16485 11 22 23.66 +08 45 34.0 19.5   704 – Lincoln Laboratory ETS, New Mexico MPS 55463
2002 04 15.17903 11 22 23.33 +08 45 37.9 19.8   704 – Lincoln Laboratory ETS, New Mexico MPS 55463
2002 04 17.27890 11 21 40.92 +08 53 34.0 19.4   704 – Lincoln Laboratory ETS, New Mexico MPS 55463
2002 04 17.29250 11 21 40.61 +08 53 36.3 19.8   704 – Lincoln Laboratory ETS, New Mexico MPS 55463
2002 04 17.30611 11 21 40.32 +08 53 39.0 19.4   704 – Lincoln Laboratory ETS, New Mexico MPS 55463
2002 04 17.31974 11 21 40.04 +08 53 42.0 19.8   704 – Lincoln Laboratory ETS, New Mexico MPS 55463
2006 01 31.49490 13 05 05.35 -04 25 56.6 20.0 V G96 – Mt. Lemmon Survey MPS 161711
2006 01 31.50017 13 05 05.49 -04 25 56.2 20.0 V G96 – Mt. Lemmon Survey MPS 161711
2006 01 31.50544 13 05 05.67 -04 25 55.9 20.0 V G96 – Mt. Lemmon Survey MPS 161711
2006 01 31.51073 13 05 05.82 -04 25 55.9 20.0 V G96 – Mt. Lemmon Survey MPS 161711
2006 02 28.41240 13 09 45.30 -02 58 36.6 20.1   704 – Lincoln Laboratory ETS, New Mexico MPS 165023
2006 02 28.42403 13 09 45.16 -02 58 32.4 20.0   704 – Lincoln Laboratory ETS, New Mexico MPS 165023
2006 02 28.44729 13 09 44.79 -02 58 23.5 20.1   704 – Lincoln Laboratory ETS, New Mexico MPS 165023
2006 03 24.34588 12 57 08.65 +00 03 48.0 19.3   704 – Lincoln Laboratory ETS, New Mexico MPS 166981
